User: anonymous   Login
Location: Unspecified
(0.0000°N, 0.0000°E)
Time: 16:30:09
(UTC+00:00)
Language:

Kosmos-2135 - Orbit

View from above orbital plane
View from above orbital plane
View from above satellite
View from above satellite

Ground track
Ground track

The orbit data is extracted from the following two-line orbital elements,

1 21130U 91013A   18200.70041739  .00000005  00000-0 -98010-5 0  9992
2 21130  82.8268 245.2190 0066161  12.5035 347.7744 13.78515145378095
Epoch (UTC): 19 July 2018 16:48:36
Eccentricity: 0.0066161
inclination: 82.8268°
perigee height: 920 km
apogee height: 1018 km
right ascension of ascending node: 245.2190°
argument of perigee: 12.5035°
revolutions per day: 13.78515145
mean anomaly at epoch: 347.7744°
orbit number at epoch: 37809

The dashed part of the orbit path shows where the satellite is in the earth's shadow,  

DLR